Content
SEND FEEDBACK

Daily
Averages
Monthly
Summary
United States of America

FAYETTEVILLE, TENNESSEE


Home > North America > United States > Tennessee
Elevation: 700 feet     Latitude: 35 10N     Longitude: 086 33W

WEATHER
 
SELECT A DAY
Number of Records: 305,508;   Date Range: 4/22/02 - 10/21/14
 
SHARE

PRINT THIS DATA

[ ← Previous Day ]
WEATHER ALMANAC - JULY 13, 2014
[ Next Day → ]
[ °C ]   °F
Weather ElementAverageHighLow
Temperature79.5 °F89.6 °F (11:55 am)69.8 °F (11:35 pm)
Dewpoint66.9 °F69.8 °F (6:35 pm)62.6 °F (12:15 am)
Humidity67.5 %88 % (12:35 am)40 % (10:55 am)
Barometer30.09 in30.16 in (9:35 am)30.03 in (1:55 pm)
Wind Speed3.4 mph10.4 mph (1:55 pm)
Wind Gust17.3 mph (3:55 pm)
Weather ElementAverage
Visibility8.9 mi
Wind DirectionESE (105.8 °)

Weather ElementTotal
Precipitation---
Cooling Degree Days14.7 (Base 65)
Growing Degree Days29.7 (Base 50)
Averaged from 72 records on July 13, 2014
WEATHER CONDITIONS BREAKOUT
WIND DIRECTION BREAKOUT
WEATHER BY HOUR - JULY 13, 2014
[ °C ]   °F
Local TimeTemperatureDewpointHumidityBarometerVisibilityWind DirectionWind SpeedGust SpeedPrecipitationEventsConditions
12:15 AM75.2 °F69.8 °F83 %30.13 in10.0 miCalmClear
12:35 AM77.0 °F68.0 °F74 %30.12 in10.0 miCalmClear
12:55 AM73.4 °F68.0 °F83 %30.12 in7.0 miCalmClear
1:15 AM71.6 °F68.0 °F88 %30.12 in5.0 miCalmClear
1:35 AM71.6 °F68.0 °F88 %30.11 in7.0 miCalmClear
1:55 AM71.6 °F68.0 °F88 %30.11 in7.0 miCalmClear
2:15 AM71.6 °F68.0 °F88 %30.10 in7.0 miCalmClear
2:35 AM71.6 °F68.0 °F88 %30.10 in7.0 miCalmClear
2:55 AM71.6 °F68.0 °F88 %30.09 in5.0 miCalmClear
3:15 AM71.6 °F68.0 °F88 %30.08 in7.0 miCalmClear
3:35 AM69.8 °F66.2 °F88 %30.08 in5.0 miCalmClear
3:55 AM69.8 °F66.2 °F88 %30.08 in5.0 miCalmClear
4:15 AM69.8 °F66.2 °F88 %30.07 in5.0 miCalmClear
4:35 AM69.8 °F66.2 °F88 %30.08 in5.0 miCalmClear
4:55 AM71.6 °F68.0 °F88 %30.09 in5.0 miCalmClear
5:15 AM69.8 °F66.2 °F88 %30.09 in5.0 miCalmClear
5:35 AM71.6 °F68.0 °F88 %30.10 in7.0 miCalmClear
5:55 AM69.8 °F66.2 °F88 %30.11 in5.0 miCalmClear
6:15 AM69.8 °F66.2 °F88 %30.11 in5.0 miCalmClear
6:35 AM71.6 °F68.0 °F88 %30.12 in7.0 miCalmClear
6:55 AM71.6 °F68.0 °F88 %30.13 in5.0 miCalmClear
7:15 AM73.4 °F68.0 °F83 %30.13 in10.0 miCalmClear
7:35 AM75.2 °F68.0 °F78 %30.14 in10.0 miSE (140°)3.5 mphClear
7:55 AM77.0 °F68.0 °F74 %30.14 in10.0 miCalmClear
8:15 AM78.8 °F68.0 °F69 %30.15 in10.0 miCalmClear
8:35 AM80.6 °F68.0 °F65 %30.15 in10.0 miSouth (170°)4.6 mphClear
8:55 AM80.6 °F68.0 °F65 %30.15 in10.0 miWSW (250°)4.6 mphClear
9:15 AM82.4 °F68.0 °F62 %30.16 in10.0 miSSW (210°)6.9 mphScattered Clouds
9:35 AM80.6 °F68.0 °F65 %30.15 in10.0 miSSW (210°)4.6 mphScattered Clouds
9:55 AM82.4 °F68.0 °F62 %30.15 in10.0 miSSW (210°)8.1 mphClear
10:15 AM84.2 °F68.0 °F58 %30.15 in10.0 miSSW (210°)8.1 mphClear
10:35 AM84.2 °F68.0 °F58 %30.15 in10.0 miSSW (200°)4.6 mphClear
10:55 AM84.2 °F68.0 °F58 %30.14 in10.0 miSSW (200°)5.8 mphScattered Clouds
11:15 AM86.0 °F68.0 °F55 %30.14 in10.0 miSW (220°)9.2 mphClear
11:35 AM86.0 °F68.0 °F55 %30.13 in10.0 miWSW (250°)6.9 mphMostly Cloudy
11:55 AM86.0 °F66.2 °F51 %30.12 in10.0 miWSW (240°)8.1 mphScattered Clouds
12:15 PM87.8 °F68.0 °F52 %30.12 in10.0 miWNW (290°)8.1 mphClear
12:35 PM87.8 °F66.2 °F49 %30.11 in10.0 miWSW (250°)8.1 mphClear
12:55 PM87.8 °F64.4 °F46 %30.09 in10.0 miWSW (250°)5.8 mphScattered Clouds
1:15 PM87.8 °F66.2 °F49 %30.09 in10.0 miWest (270°)4.6 mphScattered Clouds
1:35 PM87.8 °F62.6 °F43 %30.09 in10.0 miNorth (350°)3.5 mphScattered Clouds
1:55 PM86.0 °F64.4 °F48 %30.09 in10.0 miSE (140°)10.4 mph17.3 mphScattered Clouds
2:15 PM82.4 °F66.2 °F58 %30.09 in10.0 miSE (130°)8.1 mphScattered Clouds
2:35 PM80.6 °F68.0 °F65 %30.09 in10.0 miSE (130°)10.4 mphScattered Clouds
2:55 PM84.2 °F66.2 °F55 %30.08 in10.0 miSE (140°)9.2 mphClear
3:15 PM86.0 °F68.0 °F55 %30.07 in10.0 miSE (140°)6.9 mphClear
3:35 PM87.8 °F68.0 °F52 %30.06 in10.0 miSSE (150°)5.8 mphClear
3:55 PM87.8 °F64.4 °F46 %30.05 in10.0 miSouth (170°)8.1 mphClear
4:15 PM89.6 °F64.4 °F43 %30.05 in10.0 miSouth (190°)8.1 mphClear
4:35 PM89.6 °F64.4 °F43 %30.04 in10.0 miSSW (210°)9.2 mphClear
4:55 PM89.6 °F64.4 °F43 %30.04 in10.0 miSSW (210°)6.9 mphClear
5:15 PM89.6 °F62.6 °F40 %30.03 in10.0 miSouth (190°)5.8 mphClear
5:35 PM87.8 °F64.4 °F46 %30.03 in10.0 miSSW (200°)8.1 mphClear
5:55 PM87.8 °F62.6 °F43 %30.03 in10.0 miSSW (210°)6.9 mphClear
6:15 PM87.8 °F64.4 °F46 %30.03 in10.0 miSSW (200°)5.8 mphClear
6:35 PM87.8 °F64.4 °F46 %30.03 in10.0 miSW (220°)4.6 mphClear
6:55 PM87.8 °F64.4 °F46 %30.03 in10.0 miSW (220°)3.5 mphClear
7:15 PM86.0 °F64.4 °F48 %30.03 in10.0 miSSW (200°)4.6 mphClear
7:35 PM86.0 °F66.2 °F51 %30.03 in10.0 miSouth (170°)3.5 mphClear
7:55 PM84.2 °F66.2 °F55 %30.03 in10.0 miCalmClear
8:15 PM82.4 °F68.0 °F62 %30.03 in10.0 miSSE (150°)3.5 mphClear
8:35 PM80.6 °F66.2 °F61 %30.04 in10.0 miSSE (150°)4.6 mphClear
8:55 PM80.6 °F66.2 °F61 %30.04 in10.0 miCalmClear
9:15 PM77.0 °F68.0 °F74 %30.05 in10.0 miCalmClear
9:35 PM75.2 °F68.0 °F78 %30.06 in10.0 miCalmClear
9:55 PM75.2 °F68.0 °F78 %30.06 in10.0 miCalmClear
10:15 PM75.2 °F68.0 °F78 %30.06 in10.0 miSouth (180°)3.5 mphClear
10:35 PM73.4 °F68.0 °F83 %30.06 in10.0 miCalmClear
10:55 PM73.4 °F68.0 °F83 %30.06 in10.0 miCalmClear
11:15 PM73.4 °F68.0 °F83 %30.06 in10.0 miCalmClear
11:35 PM73.4 °F68.0 °F83 %30.06 in10.0 miCalmScattered Clouds
11:55 PM73.4 °F68.0 °F83 %30.05 in10.0 miCalmScattered Clouds
Hourly data recorded from KMDQ, located miles away from Fayetteville, Tennessee







STORIES FROM OUR PARTNERS